KAL1045 RKSS-RKPC

Flight info

Callsign KAL1045
Flight time N/A
Altitude 24000
Route BULTI2T/32L BULTI Y711 DOTOL
Aircraft A21N/M-SDE3GHIJ2J3J5M1RVWXYZ/LB1

Departure

Time 2026-04-30 14:57
Airport Gimpo International Airport (RKSS)

Arrival

Time N/A
Airport Jeju International Airport (RKPC)
Time Latitude Longitude Altitude Speed Heading
2026-04-30 14:40 37.55788 126.80248 60 ft 0 kts 46°
2026-04-30 14:43 37.55787 126.80246 60 ft 1 kts 46°
2026-04-30 14:43 37.55776 126.80232 60 ft 2 kts 45°
2026-04-30 14:43 37.55766 126.80218 60 ft 2 kts 46°
2026-04-30 14:43 37.55756 126.80205 60 ft 2 kts 45°
2026-04-30 14:44 37.55746 126.80191 60 ft 2 kts 70°
2026-04-30 14:44 37.55743 126.80172 60 ft 2 kts 92°
2026-04-30 14:44 37.55747 126.80153 60 ft 2 kts 116°
2026-04-30 14:44 37.55752 126.80141 60 ft 0 kts 133°
2026-04-30 14:45 37.55757 126.80135 60 ft 0 kts 136°
2026-04-30 14:45 37.55758 126.80135 60 ft 0 kts 136°
2026-04-30 14:49 37.55755 126.80138 60 ft 5 kts 136°
2026-04-30 14:49 37.55711 126.80192 60 ft 9 kts 136°
2026-04-30 14:50 37.55607 126.80310 60 ft 11 kts 151°
2026-04-30 14:50 37.55540 126.80359 60 ft 11 kts 143°
2026-04-30 14:51 37.55425 126.80499 60 ft 12 kts 135°
2026-04-30 14:51 37.55363 126.80575 60 ft 12 kts 135°
2026-04-30 14:51 37.55224 126.80615 60 ft 12 kts 226°
2026-04-30 14:52 37.55164 126.80534 60 ft 12 kts 224°
2026-04-30 14:52 37.55152 126.80520 60 ft 0 kts 224°
2026-04-30 14:52 37.55143 126.80509 60 ft 2 kts 224°
2026-04-30 14:53 37.55044 126.80386 60 ft 14 kts 226°
2026-04-30 14:53 37.54991 126.80318 59 ft 9 kts 225°
2026-04-30 14:54 37.54912 126.80219 59 ft 4 kts 225°
2026-04-30 14:54 37.54859 126.80152 59 ft 6 kts 228°
2026-04-30 14:55 37.54852 126.80045 59 ft 6 kts 329°
2026-04-30 14:55 37.54880 126.80005 59 ft 2 kts 313°
2026-04-30 14:55 37.54882 126.80001 59 ft 0 kts 313°
2026-04-30 14:56 37.55021 126.79824 59 ft 59 kts 315°
2026-04-30 14:56 37.56208 126.78325 93 ft 169 kts 314°
2026-04-30 14:57 37.57051 126.77264 747 ft 164 kts 311°
2026-04-30 14:57 37.58697 126.75214 2014 ft 171 kts 316°
2026-04-30 14:58 37.60528 126.72950 2766 ft 202 kts 315°
2026-04-30 14:58 37.61555 126.71581 3072 ft 223 kts 306°
2026-04-30 14:58 37.61880 126.67472 3863 ft 264 kts 248°
2026-04-30 14:59 37.59524 126.63883 4882 ft 274 kts 227°
2026-04-30 15:00 37.55238 126.59267 4992 ft 277 kts 196°
2026-04-30 15:00 37.51314 126.58670 6384 ft 280 kts 184°
2026-04-30 15:01 37.47433 126.58197 7962 ft 281 kts 184°
2026-04-30 15:01 37.45433 126.57936 8740 ft 282 kts 184°
2026-04-30 15:01 37.41538 126.57471 10162 ft 283 kts 179°
2026-04-30 15:02 37.39533 126.57591 10625 ft 292 kts 171°
2026-04-30 15:02 37.37437 126.58071 10928 ft 307 kts 167°
2026-04-30 15:03 37.30691 126.60025 11767 ft 350 kts 165°
2026-04-30 15:03 37.26154 126.61525 12392 ft 369 kts 165°
2026-04-30 15:04 37.21046 126.63211 13594 ft 372 kts 165°
2026-04-30 15:04 37.13408 126.65722 15203 ft 378 kts 166°
2026-04-30 15:05 37.05859 126.68202 16629 ft 382 kts 166°
2026-04-30 15:06 37.00690 126.69898 17575 ft 384 kts 166°
2026-04-30 15:06 36.95599 126.71567 18359 ft 388 kts 167°
2026-04-30 15:07 36.90409 126.73400 19258 ft 391 kts 163°
2026-04-30 15:08 36.80567 126.78274 20753 ft 398 kts 160°
2026-04-30 15:08 36.73057 126.81752 21780 ft 399 kts 168°
2026-04-30 15:09 36.67461 126.82689 22461 ft 399 kts 179°
2026-04-30 15:09 36.62294 126.82906 23098 ft 400 kts 180°
2026-04-30 15:10 36.56192 126.83137 23781 ft 402 kts 180°
2026-04-30 15:11 36.44845 126.83560 23946 ft 402 kts 180°
2026-04-30 15:11 36.39632 126.83682 23945 ft 400 kts 183°
2026-04-30 15:12 36.31558 126.83006 23946 ft 400 kts 187°
2026-04-30 15:13 36.25882 126.82400 23945 ft 400 kts 186°
2026-04-30 15:14 36.14523 126.81174 23948 ft 399 kts 186°
2026-04-30 15:14 36.06145 126.80263 23951 ft 398 kts 187°
2026-04-30 15:16 35.92370 126.78773 23953 ft 398 kts 187°
2026-04-30 15:17 35.82343 126.77687 23953 ft 396 kts 187°
2026-04-30 15:18 35.71446 126.76505 23952 ft 395 kts 187°
2026-04-30 15:19 35.63073 126.75603 23955 ft 395 kts 187°